Crane Lake, MN

5:15 PM CST on February 23, 2017 (GMT -0600)
Crane Lake

Weather History for KCDD - October, 2011

Change the Weather History Date:

Saturday, October 22, 2011

  Actual Average Record
Temperature  
Mean Temperature 37 °F -  
Max Temperature 50 °F 45 °F 69 °F (1998)
Min Temperature 24 °F 31 °F 24 °F (1997)
Degree Days  
Heating Degree Days 28    
Moisture  
Dew Point 32 °F    
Average Humidity 81    
Maximum Humidity 100    
Minimum Humidity 47    
Precipitation  
Precipitation 0.00 in - - ()
Sea Level Pressure  
Sea Level Pressure 30.02 in    
Wind  
Wind Speed 1 mph (SE)    
Max Wind Speed 9 mph    
Max Gust Speed -    
Visibility 10 miles    
Events      
Averages and records for this station are not official NWS values.
T = Trace of Precipitation, MM = Missing Value Source: NWS Daily Summary

Daily Weather History Graph

Daily Weather History Graph

Search for Another Location

Airport or City:

Trip Planner

Search our weather history database for the weather conditions in past years. The results will help you decide how hot, cold, wet, or windy it might be!

Date:

Astronomy

Oct. 22, 2011 Rise Set
Actual Time 7:39 AM CDT 6:08 PM CDT
Civil Twilight 7:07 AM CDT 6:40 PM CDT
Nautical Twilight 6:31 AM CDT 7:16 PM CDT
Astronomical Twilight 5:55 AM CDT 7:52 PM CDT
Moon 2:15 AM CDT (10/22) 3:45 PM CDT (10/22)
Length of Visible Light 11h 32m
Length of Day
10h 28m
Waning Crescent, 23% of the Moon is Illuminated
Oct 22
Waning Crescent
Oct 26
New
Nov 2
First Quarter
Nov 10
Full
Nov 18
Last Quarter

Hourly Weather History & Observations

Time (CDT) Temp. Windchill Dew Point Humidity Pressure Visibility Wind Dir Wind Speed Gust Speed Precip Events Conditions
12:01 AM 35.6 °F - 32.0 °F 87% 29.98 in 10.0 mi NNW 1.2 mph - N/A   Clear
12:21 AM 33.8 °F - 30.2 °F 87% 29.98 in 10.0 mi North 1.2 mph - N/A   Clear
12:41 AM 33.8 °F - 32.0 °F 93% 29.99 in 10.0 mi North 1.2 mph - N/A   Scattered Clouds
1:01 AM 39.2 °F - 35.6 °F 87% 29.99 in 10.0 mi NNW 1.2 mph - N/A   Mostly Cloudy
1:21 AM 41.0 °F - 35.6 °F 81% 29.99 in 10.0 mi North 1.2 mph - N/A   Mostly Cloudy
1:41 AM 35.6 °F - 33.8 °F 93% 30.00 in 10.0 mi Calm Calm - N/A   Scattered Clouds
2:21 AM 30.2 °F - 28.4 °F 93% 30.01 in 10.0 mi NE 1.2 mph - N/A   Clear
2:41 AM 30.2 °F - 28.4 °F 93% 30.01 in 10.0 mi Calm Calm - N/A   Clear
3:01 AM 28.4 °F - 28.4 °F 100% 30.02 in 10.0 mi Calm Calm - N/A   Clear
3:21 AM 28.4 °F - 26.6 °F 93% 30.02 in 10.0 mi Calm Calm - N/A   Clear
3:41 AM 26.6 °F - 26.6 °F 100% 30.02 in 10.0 mi Calm Calm - N/A   Clear
4:21 AM 26.6 °F - 26.6 °F 100% 30.03 in 10.0 mi South 1.2 mph - N/A   Clear
4:41 AM 26.6 °F - 26.6 °F 100% 30.03 in 10.0 mi Calm Calm - N/A   Clear
5:21 AM 26.6 °F - 24.8 °F 93% 30.04 in 10.0 mi Calm Calm - N/A   Clear
6:21 AM 24.8 °F - 24.8 °F 100% 30.06 in 10.0 mi Calm Calm - N/A   Clear
7:21 AM 26.6 °F - 26.6 °F 100% 30.07 in 10.0 mi SSE 1.2 mph - N/A   Overcast
8:01 AM 28.4 °F - 28.4 °F 100% 30.09 in 10.0 mi ESE 1.2 mph - N/A   Mostly Cloudy
8:21 AM 30.2 °F - 28.4 °F 93% 30.09 in 10.0 mi South 1.2 mph - N/A   Mostly Cloudy
8:41 AM 30.2 °F - 30.2 °F 100% 30.10 in 10.0 mi SSW 1.2 mph - N/A   Scattered Clouds
9:21 AM 33.8 °F - 33.8 °F 100% 30.10 in 10.0 mi Calm Calm - N/A   Scattered Clouds
10:01 AM 37.4 °F - 35.6 °F 93% 30.10 in 10.0 mi South 1.2 mph - N/A   Scattered Clouds
10:21 AM 39.2 °F - 37.4 °F 93% 30.11 in 10.0 mi SSE 1.2 mph - N/A   Scattered Clouds
10:41 AM 39.2 °F - 37.4 °F 93% 30.11 in 10.0 mi South 1.2 mph - N/A   Scattered Clouds
11:01 AM 39.2 °F - 35.6 °F 87% 30.11 in 10.0 mi WSW 1.2 mph - N/A   Scattered Clouds
11:41 AM 41.0 °F - 35.6 °F 81% 30.11 in 10.0 mi Calm Calm - N/A   Mostly Cloudy
12:01 PM 41.0 °F - 35.6 °F 81% 30.11 in 10.0 mi South 2.3 mph - N/A   Mostly Cloudy
12:41 PM 41.0 °F - 35.6 °F 81% 30.10 in 10.0 mi ESE 1.2 mph - N/A   Scattered Clouds
1:01 PM 42.8 °F - 35.6 °F 76% 30.09 in 10.0 mi South 2.3 mph - N/A   Clear
1:21 PM 42.8 °F - 35.6 °F 76% 30.08 in 10.0 mi ENE 2.3 mph - N/A   Clear
1:41 PM 44.6 °F - 35.6 °F 71% 30.07 in 10.0 mi SSE 2.3 mph - N/A   Clear
2:21 PM 48.2 °F - 33.8 °F 58% 30.05 in 10.0 mi SE 3.5 mph - N/A   Clear
3:01 PM 48.2 °F - 30.2 °F 50% 30.04 in 10.0 mi East 2.3 mph - N/A   Clear
3:21 PM 50.0 °F - 30.2 °F 47% 30.03 in 10.0 mi ESE 1.2 mph - N/A   Clear
3:41 PM 50.0 °F - 30.2 °F 47% 30.03 in 10.0 mi East 2.3 mph - N/A   Clear
4:01 PM 50.0 °F - 30.2 °F 47% 30.02 in 10.0 mi WNW 1.2 mph - N/A   Clear
4:41 PM 50.0 °F - 30.2 °F 47% 30.01 in 10.0 mi Calm Calm - N/A   Clear
5:01 PM 50.0 °F - 30.2 °F 47% 30.00 in 10.0 mi SE 1.2 mph - N/A   Clear
5:41 PM 42.8 °F - 35.6 °F 76% 29.99 in 10.0 mi Calm Calm - N/A   Clear
6:01 PM 39.2 °F - 33.8 °F 81% 29.98 in 10.0 mi ESE 1.2 mph - N/A   Clear
6:21 PM 37.4 °F - 33.8 °F 87% 29.98 in 10.0 mi Calm Calm - N/A   Scattered Clouds
7:21 PM 33.8 °F - 30.2 °F 87% 29.96 in 10.0 mi Calm Calm - N/A   Clear
8:01 PM 32.0 °F - 30.2 °F 93% 29.94 in 10.0 mi SSE 2.3 mph - N/A   Clear
9:41 PM 39.2 °F 37.0 °F 32.0 °F 75% 29.91 in 10.0 mi SSE 3.5 mph - N/A   Clear
10:01 PM 39.2 °F - 32.0 °F 75% 29.89 in 10.0 mi SE 2.3 mph - N/A   Clear
10:21 PM 41.0 °F 39.0 °F 32.0 °F 70% 29.89 in 10.0 mi SSE 3.5 mph - N/A   Clear
11:01 PM 42.8 °F 37.5 °F 30.2 °F 61% 29.85 in 10.0 mi SSE 9.2 mph - N/A   Clear
11:41 PM 44.6 °F 40.2 °F 30.2 °F 57% 29.83 in 10.0 mi South 8.1 mph - N/A   Clear